Simultaneous Nadir Overpasses (SNOs) Predictions

Prediction of SNOs between NOAA-20 and METOP-C Satellite Orbit:

Table of predicted SNOs for the next 14.0 days since TLE Epoch: 8/10/2020
Index Date (NOAA-20) Time (NOAA-20) Lat,Lon (NOAA-20) SZA (NOAA-20 ) Date (METOP-C) Time (METOP-C) Lat,Lon (METOP-C) SZA (METOP-C ) Distance(km) Time Diff (sec)
1 08/24/2020 10:59:33 73.37, 5.57 62.71 08/24/2020 11:00:40 73.31, 8.17 62.51 83.10 67
2 08/24/2020 11:50:15 -73.27, 173.11 117.40 08/24/2020 11:51:23 -73.23, 175.33 117.55 71.22 68
3 08/24/2020 12:40:57 73.07, -19.15 62.41 08/24/2020 12:42:07 73.03, -17.77 62.28 45.08 70
4 08/24/2020 13:31:39 -72.97, 148.38 117.70 08/24/2020 13:32:51 -72.91, 149.29 117.82 30.73 72
5 08/24/2020 14:22:21 72.78, -43.90 62.11 08/24/2020 14:23:34 72.76, -43.69 62.06 7.27 73
6 08/24/2020 15:13:04 -72.73, 123.52 117.94 08/24/2020 15:14:16 -72.73, 123.59 117.95 2.44 72
7 08/24/2020 16:03:50 72.73, -69.19 62.08 08/24/2020 16:04:56 72.73, -69.08 62.06 3.45 66
8 08/24/2020 16:54:33 -72.69, 98.23 117.96 08/24/2020 16:55:38 -72.71, 98.20 117.95 3.05 65
9 08/24/2020 17:45:19 72.69, -94.47 62.06 08/24/2020 17:46:18 72.71, -94.47 62.07 2.05 59
10 08/24/2020 18:36:03 -72.69, 72.84 117.93 08/24/2020 18:37:00 -72.69, 72.82 117.94 1.01 57
11 08/24/2020 19:26:49 72.70,-119.86 62.09 08/24/2020 19:27:40 72.69,-119.86 62.07 1.35 51
12 08/24/2020 20:17:33 -72.70, 47.45 117.90 08/24/2020 20:18:21 -72.72, 47.53 117.90 3.21 48
13 08/24/2020 21:08:18 72.66,-145.14 62.07 08/24/2020 21:09:02 72.66,-145.24 62.07 3.36 44
